Regional Weather Roundup
Issued by NWS

Home | Current Version | Previous Version | Graphics & Text | Print | Product List | Glossary On
Versions: 1 2 3 4 5 6 7 8 9 10 11 12 13 14 15 16 17 18 19 20 21 22 23 24 25 26 27 28 29 30 31 32 33 34 35 36 37 38 39 40 41 42 43 44 45 46 47 48 49 50
000
ASUS45 KBOI 171010
RWRID
WEATHER ROUNDUP FOR IDAHO
NATIONAL WEATHER SERVICE BOISE ID
300 AM MST WED DEC 17 2014

NOTE: "FAIR" INDICATES FEW OR NO CLOUDS BELOW 12000 FEET
WITH NO SIGNIFICANT WEATHER AND/OR OBSTRUCTIONS TO VISIBILITY

IDZ012-014-171100-
SOUTHWEST IDAHO


CITY           SKY/WX    TMP DP  RH WIND       PRES   REMARKS
BOISE          CLEAR     31  29  92 CALM      29.98R
CALDWELL       CLEAR     30  21  69 N5        30.00S WCI  25
MOUNTAIN HOME  CLEAR     32  30  92 SE10      29.98S WCI  24
$$

IDZ016-017-171100-
SOUTHCENTRAL IDAHO


CITY           SKY/WX    TMP DP  RH WIND       PRES   REMARKS
BURLEY         CLEAR     27  25  92 CALM      29.98S
JEROME         PTCLDY    30  26  85 NE10      29.98S WCI  21
TWIN FALLS     CLEAR     25  20  81 CALM      29.97S
$$

IDZ019>023-171100-
SOUTHEAST IDAHO


CITY           SKY/WX    TMP DP  RH WIND       PRES   REMARKS
IDAHO FALLS    FOG       30  29  96 CALM      30.00S VSB 3/4
POCATELLO      FOG       26  26 100 E5        30.00S VSB 1/4 WCI  20
REXBURG        CLOUDY    30  30 100 CALM      30.00S FOG
$$

IDZ006-010-011-018-031-032-171100-
CENTRAL IDAHO MOUNTAINS


CITY           SKY/WX    TMP DP  RH WIND       PRES   REMARKS
MCCALL         CLOUDY    29  27  92 CALM      29.92S
HAILEY         CLOUDY    28  27  93 W5        29.99R WCI  23
STANLEY          N/A     22  18  85 CALM      29.95R
SALMON         CLOUDY    27  25  93 CALM      29.99S
CHALLIS        CLOUDY    26  25  96 CALM      29.97S FOG
$$

IDZ002-004-006-007-026-171100-
NORTHERN IDAHO


CITY           SKY/WX    TMP DP  RH WIND       PRES   REMARKS
LEWISTON       CLOUDY    37  33  85 E3        29.95F
LOWELL           N/A     32  31  96 CALM      30.03R
COEUR D`ALENE  CLOUDY    34  28  80 NE9       29.94S WCI  26
MULLAN PASS    CLOUDY    26  24  92 S5        29.86S WCI  20
$$



USA.gov is the U.S. government's official web portal to all federal, state and local government web resources and services.